Sauk Centre, MN

10:54 AM CST on December 07, 2019 (GMT -0600)
Sauk Centre

Weather History for KD39 - September, 2019

Change the Weather History Date:

Sunday, September 1, 2019

  Actual Average (KGHW) Record (KGHW)
Temperature  
Mean Temperature 61 °F -  
Max Temperature 66 °F 76 °F 92 °F (1953)
Min Temperature 56 °F 53 °F 35 °F (1949)
Degree Days  
Heating Degree Days 4    
Growing Degree Days 11 (Base 50)    
Moisture  
Dew Point 59 °F    
Average Humidity 90    
Maximum Humidity 97    
Minimum Humidity 82    
Precipitation  
Precipitation 0.17 in - - ()
Sea Level Pressure  
Sea Level Pressure 30.09 in    
Wind  
Wind Speed 4 mph ()    
Max Wind Speed 8 mph    
Max Gust Speed -    
Visibility 9.9 miles    
Events Rain    
Averages and records for this station are not official NWS values.
T = Trace of Precipitation, MM = Missing Value Source: Averaged Metar Reports

Daily Weather History Graph

Daily Weather History Graph

Search for Another Location

Airport or City:

Astronomy

Sep. 01, 2019 Rise Set
Actual Time 6:40 AM CDT 7:58 PM CDT
Civil Twilight 6:09 AM CDT 8:28 PM CDT
Nautical Twilight 5:32 AM CDT 9:05 PM CDT
Astronomical Twilight 4:53 AM CDT 9:44 PM CDT
Moon 9:17 AM CDT (9/1) 9:37 PM CDT (9/1)
Length of Visible Light 14h 18m
Length of Day
13h 17m
Waxing Crescent, 8% of the Moon is Illuminated
Sep 1
Waxing Crescent
Sep 5
First Quarter
Sep 13
Full
Sep 21
Last Quarter
Sep 28
New

Hourly Weather History & Observations

Time (CDT) Temp. Dew Point Humidity Pressure Visibility Wind Dir Wind Speed Gust Speed Precip Events Conditions
12:17 AM 56.5 °F 55.0 °F 95% 30.17 in 10.0 mi SE 3.5 mph - N/A   Overcast
12:36 AM 57.4 °F 55.8 °F 94% 30.17 in 10.0 mi SE 4.6 mph - N/A   Overcast
12:56 AM 57.7 °F 56.3 °F 95% 30.17 in 10.0 mi SSE 5.8 mph - N/A   Overcast
1:16 AM 57.9 °F 56.3 °F 94% 30.17 in 10.0 mi SSE 5.8 mph - N/A   Overcast
1:35 AM 57.7 °F 56.3 °F 95% 30.17 in 10.0 mi SSE 4.6 mph - N/A   Overcast
1:56 AM 57.7 °F 56.3 °F 95% 30.16 in 10.0 mi SSE 4.6 mph - N/A   Overcast
2:18 AM 57.4 °F 55.8 °F 94% 30.13 in 10.0 mi SE 8.1 mph - N/A   Overcast
2:37 AM 57.2 °F 55.4 °F 94% 30.14 in 10.0 mi South 3.5 mph - N/A   Overcast
2:55 AM 57.2 °F 55.4 °F 94% 30.15 in 10.0 mi SSE 3.5 mph - N/A   Overcast
3:16 AM 57.2 °F 55.4 °F 94% 30.14 in 10.0 mi SSE 3.5 mph - N/A   Overcast
3:35 AM 57.2 °F 55.4 °F 94% 30.14 in 10.0 mi SSE 5.8 mph - N/A   Overcast
3:36 AM 57.2 °F 55.4 °F 94% 30.14 in 10.0 mi SSE 5.8 mph - N/A   Overcast
3:55 AM 57.2 °F 55.4 °F 94% 30.13 in 10.0 mi SSE 5.8 mph - N/A   Overcast
3:59 AM 57.4 °F 55.2 °F 92% 30.13 in 10.0 mi SSE 5.8 mph - N/A   Overcast
4:16 AM 57.4 °F 55.0 °F 92% 30.12 in 10.0 mi SSE 4.6 mph - N/A   Overcast
4:36 AM 57.4 °F 54.9 °F 91% 30.11 in 10.0 mi SSE 5.8 mph - N/A   Overcast
4:55 AM 57.4 °F 54.9 °F 91% 30.11 in 10.0 mi SSE 5.8 mph - N/A   Overcast
4:56 AM 57.4 °F 54.9 °F 91% 30.11 in 10.0 mi SSE 5.8 mph - N/A   Overcast
5:15 AM 57.6 °F 55.0 °F 91% 30.10 in 10.0 mi SSE 5.8 mph - N/A   Overcast
5:16 AM 57.6 °F 55.0 °F 91% 30.10 in 10.0 mi SSE 5.8 mph - N/A   Overcast
5:38 AM 57.6 °F 54.9 °F 91% 30.09 in 10.0 mi SSE 6.9 mph - N/A   Overcast
5:55 AM 57.7 °F 55.0 °F 91% 30.09 in 10.0 mi SSE 4.6 mph - N/A   Overcast
6:16 AM 57.7 °F 55.0 °F 91% 30.09 in 10.0 mi SSE 5.8 mph - N/A   Overcast
6:35 AM 57.9 °F 55.2 °F 91% 30.09 in 10.0 mi SSE 6.9 mph - N/A   Overcast
6:55 AM 58.1 °F 55.4 °F 91% 30.09 in 10.0 mi SSE 4.6 mph - N/A   Overcast
6:56 AM 58.1 °F 55.4 °F 91% 30.09 in 10.0 mi South 4.6 mph - N/A   Overcast
7:19 AM 58.1 °F 55.6 °F 91% 30.09 in 7.0 mi South 3.5 mph - N/A Rain Rain
7:36 AM 57.4 °F 55.9 °F 95% 30.09 in 1.2 mi South 5.8 mph - 0.14 in Rain Heavy Rain
7:56 AM 57.4 °F 56.3 °F 96% 30.09 in 10.0 mi South 4.6 mph - 0.14 in   Drizzle
8:15 AM 57.4 °F 56.5 °F 97% 30.09 in 10.0 mi South 4.6 mph - 0.03 in Rain Light Rain
8:16 AM 57.4 °F 56.5 °F 97% 30.09 in 10.0 mi South 5.8 mph - 0.03 in Rain Light Rain
8:35 AM 57.7 °F 57.0 °F 97% 30.09 in 10.0 mi South 5.8 mph - 0.03 in   Overcast
8:40 AM 58.1 °F 57.2 °F 97% 30.08 in 10.0 mi SSE 6.9 mph - 0.03 in   Overcast
8:58 AM 58.1 °F 57.2 °F 97% 30.08 in 10.0 mi South 6.9 mph - 0.03 in   Overcast
9:15 AM 58.3 °F 57.4 °F 97% 30.09 in 10.0 mi South 8.1 mph - N/A   Overcast
9:35 AM 58.6 °F 57.6 °F 96% 30.08 in 10.0 mi South 8.1 mph - N/A   Overcast
9:55 AM 59.0 °F 57.7 °F 96% 30.08 in 10.0 mi South 8.1 mph - N/A   Overcast
9:56 AM 59.0 °F 57.9 °F 96% 30.08 in 10.0 mi South 8.1 mph - N/A   Overcast
10:19 AM 59.5 °F 58.1 °F 95% 30.08 in 10.0 mi South 8.1 mph - N/A   Overcast
10:36 AM 59.9 °F 58.3 °F 94% 30.08 in 10.0 mi South 6.9 mph - N/A   Overcast
10:55 AM 60.4 °F 58.3 °F 93% 30.07 in 10.0 mi South 5.8 mph - N/A   Overcast
11:15 AM 61.5 °F 58.8 °F 91% 30.07 in 10.0 mi SSW 5.8 mph - N/A   Overcast
11:16 AM 61.5 °F 59.0 °F 91% 30.07 in 10.0 mi SSW 4.6 mph - N/A   Overcast
11:35 AM 61.7 °F 58.6 °F 90% 30.07 in 10.0 mi SSW 4.6 mph - N/A   Overcast
11:40 AM 62.1 °F 59.2 °F 90% 30.07 in 10.0 mi SSW 3.5 mph - N/A   Overcast
11:57 AM 62.8 °F 59.4 °F 89% 30.07 in 10.0 mi South 5.8 mph - N/A   Overcast
12:16 PM 63.3 °F 59.5 °F 87% 30.06 in 10.0 mi SSW 5.8 mph - N/A   Overcast
12:35 PM 63.7 °F 59.7 °F 87% 30.06 in 10.0 mi SW 5.8 mph - N/A   Overcast
12:36 PM 63.7 °F 59.7 °F 87% 30.06 in 10.0 mi SSW 5.8 mph - N/A   Overcast
12:55 PM 64.2 °F 60.4 °F 87% 30.06 in 10.0 mi SSW 5.8 mph - N/A   Overcast
1:00 PM 64.4 °F 60.3 °F 86% 30.06 in 10.0 mi SSW 4.6 mph - N/A   Overcast
1:18 PM 64.8 °F 60.1 °F 85% 30.06 in 10.0 mi SW 3.5 mph - N/A   Overcast
1:35 PM 64.4 °F 60.1 °F 86% 30.06 in 10.0 mi SW 5.8 mph - N/A   Overcast
1:55 PM 64.9 °F 60.4 °F 85% 30.06 in 10.0 mi WSW 3.5 mph - N/A   Overcast
1:56 PM 64.9 °F 60.4 °F 85% 30.06 in 10.0 mi WSW 3.5 mph - N/A   Overcast
2:15 PM 65.8 °F 60.8 °F 84% 30.06 in 10.0 mi WSW 4.6 mph - N/A   Overcast
2:16 PM 65.8 °F 60.6 °F 83% 30.06 in 10.0 mi WSW 3.5 mph - N/A   Overcast
2:38 PM 65.8 °F 60.4 °F 83% 30.06 in 10.0 mi West 4.6 mph - N/A   Overcast
2:56 PM 66.0 °F 60.8 °F 83% 30.06 in 10.0 mi West 4.6 mph - N/A   Overcast
3:15 PM 66.2 °F 60.6 °F 82% 30.06 in 10.0 mi NW 4.6 mph - N/A   Overcast
3:16 PM 66.2 °F 60.6 °F 82% 30.06 in 10.0 mi NW 4.6 mph - N/A   Overcast
3:35 PM 66.2 °F 61.0 °F 83% 30.06 in 10.0 mi West 3.5 mph - N/A   Overcast
3:36 PM 66.0 °F 60.8 °F 83% 30.06 in 10.0 mi West 3.5 mph - N/A   Overcast
3:59 PM 65.8 °F 60.6 °F 83% 30.05 in 10.0 mi Calm Calm - N/A   Overcast
4:16 PM 66.2 °F 61.0 °F 83% 30.06 in 10.0 mi Calm Calm - N/A   Overcast
4:36 PM 66.2 °F 60.8 °F 83% 30.06 in 10.0 mi Calm Calm - N/A   Overcast
4:55 PM 66.4 °F 61.0 °F 83% 30.06 in 10.0 mi West 3.5 mph - N/A   Overcast
4:56 PM 66.4 °F 61.0 °F 83% 30.06 in 10.0 mi West 4.6 mph - N/A   Overcast
5:19 PM 66.4 °F 61.0 °F 83% 30.06 in 10.0 mi Calm Calm - N/A   Overcast
5:36 PM 66.7 °F 61.3 °F 83% 30.05 in 10.0 mi Calm Calm - N/A   Overcast
5:56 PM 66.6 °F 61.0 °F 82% 30.05 in 10.0 mi Calm Calm - N/A   Overcast
6:15 PM 66.6 °F 61.3 °F 83% 30.05 in 10.0 mi West 3.5 mph - N/A   Overcast
6:16 PM 66.6 °F 61.3 °F 83% 30.05 in 10.0 mi West 3.5 mph - N/A   Overcast
6:35 PM 66.2 °F 61.7 °F 85% 30.05 in 10.0 mi Calm Calm - N/A   Overcast
6:39 PM 66.2 °F 61.7 °F 85% 30.05 in 10.0 mi Calm Calm - N/A   Overcast
6:58 PM 66.2 °F 61.9 °F 86% 30.05 in 10.0 mi Calm Calm - N/A   Overcast
7:16 PM 65.8 °F 61.9 °F 87% 30.06 in 10.0 mi Calm Calm - N/A   Overcast
7:35 PM 65.7 °F 62.6 °F 90% 30.06 in 10.0 mi Calm Calm - N/A   Overcast
7:36 PM 65.7 °F 62.6 °F 90% 30.06 in 10.0 mi Calm Calm - N/A   Overcast
7:55 PM 65.3 °F 62.1 °F 89% 30.06 in 10.0 mi Calm Calm - N/A   Overcast
7:56 PM 65.3 °F 62.1 °F 89% 30.06 in 10.0 mi Calm Calm - N/A   Overcast
8:18 PM 65.3 °F 62.1 °F 89% 30.06 in 10.0 mi Calm Calm - N/A   Overcast
8:38 PM 65.1 °F 62.2 °F 90% 30.06 in 10.0 mi Calm Calm - N/A   Overcast
8:56 PM 64.9 °F 61.9 °F 90% 30.07 in 10.0 mi Calm Calm - N/A   Overcast
9:15 PM 64.9 °F 61.9 °F 90% 30.08 in 10.0 mi NW 3.5 mph - N/A   Overcast
9:16 PM 64.9 °F 61.9 °F 90% 30.08 in 10.0 mi NW 4.6 mph - N/A   Overcast
9:35 PM 64.4 °F 61.7 °F 91% 30.09 in 10.0 mi NNW 4.6 mph - N/A   Overcast
9:36 PM 64.4 °F 61.7 °F 91% 30.09 in 10.0 mi NNW 4.6 mph - N/A   Overcast
9:58 PM 64.0 °F 61.0 °F 90% 30.08 in 10.0 mi North 4.6 mph - N/A   Overcast
10:16 PM 63.7 °F 60.6 °F 90% 30.09 in 10.0 mi NNW 4.6 mph - N/A   Overcast
10:35 PM 62.2 °F 60.1 °F 93% 30.09 in 10.0 mi North 5.8 mph - N/A   Mostly Cloudy
10:36 PM 62.4 °F 60.1 °F 92% 30.09 in 10.0 mi North 5.8 mph - N/A   Mostly Cloudy
10:56 PM 62.6 °F 59.7 °F 90% 30.09 in 10.0 mi NNW 3.5 mph - N/A   Mostly Cloudy
11:15 PM 61.3 °F 59.2 °F 93% 30.09 in 10.0 mi Calm Calm - N/A   Scattered Clouds
11:16 PM 61.3 °F 59.2 °F 93% 30.09 in 10.0 mi Calm Calm - N/A   Scattered Clouds
11:38 PM 58.8 °F 57.4 °F 95% 30.09 in 10.0 mi SSW 3.5 mph - N/A   Clear
11:56 PM 58.1 °F 57.4 °F 97% 30.09 in 10.0 mi Calm Calm - N/A   Clear